Location: Unspecified
(0.0000°N, 0.0000°E)
Time: 16:38:43
(UTC+00:00)

SRMSAT - Pass Details

Date: 29 May 2020
Orbit: 848 x 866 km, 20.0° (Epoch: 06 July)

Event Time Altitude Azimuth Distance (km) Brightness Sun altitude
Exits shadow 03:34:17 24° 136° (SE) 1,726 ? -32.9°
Drops below altitude 10° 03:36:38 10° 126° (SE) 2,495 ? -32.4°
Sets 03:39:17 0° 121° (ESE) 3,432 ? -31.8°
